Regional Weather Roundup
Issued by NWS

Home | Current Version | Previous Version | Graphics & Text | Print | Product List | Glossary On
Versions: 1 2 3 4 5 6 7 8 9 10 11 12 13 14 15 16 17 18 19 20 21 22 23 24 25 26 27 28 29 30 31 32 33 34 35 36 37 38 39 40 41 42 43 44 45 46 47 48 49 50
000
ASUS44 KMEG 160610
RWRTN
TENNESSEE HOURLY STATE WEATHER ROUNDUP
NATIONAL WEATHER SERVICE MEMPHIS TN
1200 AM CST TUE JAN 16 2018

TNZ002-004-019-021-049-052-054-088>092-160700-
WEST TENNESSEE

CITY           SKY/WX    TMP DP  RH WIND       PRES   REMARKS
MEMPHIS INTL   FLURRIES  26  22  84 N15G24    30.51R WCI  14
NWS MEMPHIS      N/A     26 N/A N/A MISG        N/A
JACKSON        FLURRIES  25  20  81 N17       30.50S WCI  12
DYERSBURG      LGT SNOW  19  15  84 N12       30.56S FOG     WCI   7
SOMERVILLE     CLOUDY    27  23  86 N16       30.48R FOG     WCI  14
COVINGTON      CLOUDY    21  18  86 N20G26    30.54S FOG     WCI   6
UNION CITY     CLOUDY    18  14  86 N15       30.55R FOG     WCI   3
BOLIVAR        CLOUDY    27  25  93 N10       30.47R FOG     WCI  17
PARIS          MOCLDY    19  18  93 NW7       30.49R FOG     WCI  10
HUNTINGDON     CLOUDY    23  21  93 N9G15     30.49R FOG     WCI  13
LEXINGTON      CLOUDY    27  23  86 N13       30.46R WCI  16
SELMER         CLOUDY    28  27  93 N9G22     30.45R FOG     WCI  20
SAVANNAH       CLOUDY    32  28  86 NW10      30.44S WCI  24
$$

TNZ008-025-027-028-033-062-065-066-160700-
NORTH MIDDLE TENNESSEE

CITY           SKY/WX    TMP DP  RH WIND       PRES   REMARKS
NASHVILLE      LGT SNOW  26  22  84 N18       30.45R FOG     WCI  13
PORTLAND       CLOUDY    19  16  86 N14       30.45R WCI   6
CLARKSVILLE    LGT SNOW  18  13  80 N14       30.50R WCI   4
SMYRNA         FLURRIES  28  24  85 N20       30.44S WCI  15
COOKEVILLE     CLOUDY    32  27  80 VRB3      30.36F
GALLATIN       CLOUDY    23  16  74 NW12      30.48R WCI  12
CROSSVILLE     FAIR      30  20  66 NW3       30.31S
$$

TNZ061-075-076-078-094-096-097-160700-
SOUTH MIDDLE TENNESSEE

CITY           SKY/WX    TMP DP  RH WIND       PRES   REMARKS
FAYETTEVILLE   PTCLDY    32  25  74 N6G14     30.36S WCI  26
TULLAHOMA      PTCLDY    28  25  86 N7        30.35F WCI  21
WINCHESTER       N/A     30  23  74 CALM      30.36S
MCMINNVILLE    CLOUDY    28  25  86 NE5       30.37S WCI  23
COLUMBIA       CLOUDY    32  30  93 NW6       30.40R WCI  26
SHELBYVILLE    CLOUDY    32  28  86 N14       30.39S WCI  22
$$

TNZ017-018-042-046-047-160700-
NORTHEAST TENNESSEE

CITY           SKY/WX    TMP DP  RH WIND       PRES   REMARKS
TRI CITIES     FAIR      24  22  91 CALM      30.35S
ELIZABETHTON   FAIR      28  25  86 CALM      30.36S
$$

TNZ012-013-036-069-073-074-160700-
CENTRAL EAST TENNESSEE

CITY           SKY/WX    TMP DP  RH WIND       PRES   REMARKS
KNOXVILLE      FAIR      32  24  72 W5        30.33F WCI  27
OAK RIDGE      FAIR      27  23  85 CALM      30.36S
DOWNTOWN KNOXV CLEAR     27  25  93 CALM      30.36S
GATLINBURG     PTCLDY    25  23  93 CALM      30.34F
MORRISTOWN     MOCLDY    28  25  86 CALM      30.33F
JACKSBORO      MOCLDY    28  25  86 CALM      30.36F
$$

TNZ083-085-099-160700-
SOUTHEAST TENNESSEE

CITY           SKY/WX    TMP DP  RH WIND       PRES   REMARKS
CHATTANOOGA    FAIR      29  23  78 CALM      30.38S
DAYTON         CLOUDY    27  27 100 CALM      30.36S
$$

SKY/WX REPORTED AS FAIR MEANS FEW OR NO CLOUDS BELOW
12 THOUSAND FEET.





USA.gov is the U.S. government's official web portal to all federal, state and local government web resources and services.